Regional Weather Roundup
Issued by NWS Albany, NY

Home | Current Version | Previous Version | Text Only | Print | Product List | Glossary On
Versions: 1 2 3 4 5 6 7 8 9 10 11 12 13 14 15 16 17 18 19 20 21 22 23 24 25 26 27 28 29 30 31 32 33 34 35 36 37 38 39 40 41 42 43 44 45 46 47 48 49 50
000
ASUS41 KALY 281210
RWRALY

NEW YORK STATE HOURLY WEATHER ROUNDUP
NATIONAL WEATHER SERVICE ALBANY NY
800 AM EDT FRI AUG 28 2015

NOTE: "FAIR" INDICATES FEW OR NO CLOUDS BELOW 12,000 FEET WITH NO
SIGNIFICANT WEATHER AND/OR NO OBSTRUCTIONS TO VISIBILITY.

NYZ032-033-038>043-046>054-057>066-NYZ062>081-281300-
EAST


CITY           SKY/WX    TMP DP  RH WIND       PRES   REMARKS
ALBANY         MOSUNNY   61  54  77 W3        30.19R
GLENS FALLS    MOSUNNY   56  53  90 CALM      30.19R
POUGHKEEPSIE   SUNNY     58  53  84 CALM      30.19R
NEWBURGH       SUNNY     57  55  94 CALM      30.20R
MONTGOMERY     SUNNY     57  54  89 CALM      30.19R
WHITE PLAINS   SUNNY     63  54  72 NW5       30.17R
ISLIP          MOSUNNY   68  57  68 VRB7      30.14R
NEW YORK CITY  MOSUNNY   68  56  65 NW7       30.17R
CENTRAL PARK   SUNNY     65  53  65 CALM      30.20R
$$

NYZ005>009-017-018-044>046-055-056-281300-
CENTRAL


CITY           SKY/WX    TMP DP  RH WIND       PRES   REMARKS
FULTON         CLOUDY    61  56  83 SW3       30.20R
SYRACUSE       CLOUDY    59  56  89 CALM      30.20R
ROME           CLOUDY    54  53  97 SE3       30.22R
ELMIRA         FOG       53  53 100 SW6       30.22S VSB 1/4
BINGHAMTON     SUNNY     54  52  93 CALM      30.22R
MONTICELLO     SUNNY     55  54  94 NW6       30.22S
$$

NYZ026>034-041>043-281300-
NORTH


CITY           SKY/WX    TMP DP  RH WIND       PRES   REMARKS
WATERTOWN      SUNNY     59  55  87 CALM      30.18R
FORT DRUM      NOT AVBL
MASSENA        SUNNY     58  56  93 W5        30.19R
SARANAC LAKE   CLOUDY    54  54 100 SW3       30.19R FOG
PLATTSBURGH      N/A     61  55  81 CALM      30.16S
$$

NYZ001>004-010>016-019>021-281300-
WEST


CITY           SKY/WX    TMP DP  RH WIND       PRES   REMARKS
NIAGARA FALLS  MOSUNNY   54  52  93 CALM      30.21R
BUFFALO        PTSUNNY   57  54  89 CALM      30.22R
DUNKIRK        PTSUNNY   60  54  80 S5        30.22R
JAMESTOWN      CLOUDY    50  46  87 CALM      30.24R VSB<1/4
WELLSVILLE     FOG       47  46  97 CALM      30.27R VSB<1/4
ROCHESTER      MOSUNNY   55  53  93 SW8       30.22R
PENN YAN       CLOUDY    56  55  97 SW6       30.23R FOG
$$

             KEY
       WCI = WIND CHILL INDEX
       VSB = VISIBILITY
       HX  = HEAT INDEX
$$



USA.gov is the U.S. government's official web portal to all federal, state and local government web resources and services.